Main page
Satellite images Climate Cyclones Lightning AirportsFAQ Languages Contact Newsletter About
Weather : Europe Africa North America South America Asia Australia-Oceania Others

1226, Shenzhen, Shenzhen Bao'an International Airport

latitude: , longitude: China, elevation: 22-33N m


METAR: ZGSZ 180800Z 36006MPS CAVOK 26/19 Q1012 NOSIG